(306623) = 2000 QD61 = 2005 VL108

Discovered at Socorro on 2000-08-26 by LINEAR.

Orbit

Orbit type: Main Belt

Note: WebGL enabled browser required.

epoch2023-09-13.0
epoch JD2460200.5
perihelion date2023-07-14.25920
perihelion JD2460139.75920
argument of perihelion (°)321.44317
ascending node (°)345.58794
inclination (°)3.77798
eccentricity0.1892939
perihelion distance (AU)2.2524036
Tisserand w.r.t. Jupiter3.3
ΔV w.r.t. Earth (km/sec)9.5
semimajor axis (AU)2.7783234
mean anomaly (°)12.92737
mean daily motion (°/day)0.21282840
aphelion distance (AU)3.304
period (years)4.63
P-vector [x]0.60258566
P-vector [y]-0.71489397
P-vector [z]-0.35470712
Q-vector [x]0.79788569
Q-vector [y]0.53054638
Q-vector [z]0.28617994
absolute magnitude16.49
phase slope0.15
uncertainty0
referenceMPEC 2024-A34
observations used360
oppositions12
arc length (days)8448
first opposition used2000
last opposition used2023
residual rms (arc-secs)0.76
perturbers coarse indicatorM-v
perturbers precise indicator003Ek
first observation date used2000-08-26.0
last observation date used2023-10-13.0
computer nameMPCLINUX
JD of orbit computation2456966.899519
perihelion JD uncertainty (days)8.8793E-05
argument of perihelion uncertainty (°)6.2433E-05
ascending node uncertainty (°)5.8990E-05
inclination uncertainty (°)8.5187E-06
eccentricity uncertainty 6.3480E-08
perihelion distance uncertainty (AU)1.7701E-07
Minimum Orbit Intersection Distances (in AU)
for orbit epoch: 2460200.5, reference: E2024-A34
Mercury1.81469
Venus1.52421
Earth1.23856
Mars0.84918
Jupiter1.95406
Saturn5.81543
Uranus15.22
Neptune26.8946

Observations

366 total observations over interval: 2000 08 26.34651 – 2023 10 13.284632
These data are available for download (format description).

Date (UT) J2000 RA J2000 Dec Magn Location Ref
2000 08 26.34651 23 03 47.70 -06 49 22.5 19.5   704 – Lincoln Laboratory ETS, New Mexico MPS 18153
2000 08 26.35988 23 03 47.11 -06 49 25.1 19.5   704 – Lincoln Laboratory ETS, New Mexico MPS 18153
2000 08 26.37323 23 03 46.35 -06 49 26.8 19.3   704 – Lincoln Laboratory ETS, New Mexico MPS 18153
2000 08 26.38662 23 03 45.79 -06 49 27.7 19.3   704 – Lincoln Laboratory ETS, New Mexico MPS 18153
2000 08 29.33735 23 01 17.84 -06 58 14.7 18.7   704 – Lincoln Laboratory ETS, New Mexico MPS 18153
2000 08 29.35078 23 01 17.19 -06 58 17.7 19.3   704 – Lincoln Laboratory ETS, New Mexico MPS 18153
2000 08 29.37764 23 01 15.73 -06 58 22.0 19.5   704 – Lincoln Laboratory ETS, New Mexico MPS 18153
2000 08 29.39110 23 01 14.97 -06 58 24.7 19.6   704 – Lincoln Laboratory ETS, New Mexico MPS 18153
2000 08 31.32292 22 59 36.39 -07 04 17.1 19.0   704 – Lincoln Laboratory ETS, New Mexico MPS 18153
2000 08 31.33728 22 59 35.61 -07 04 19.3 19.1   704 – Lincoln Laboratory ETS, New Mexico MPS 18153
2000 08 31.35178 22 59 34.83 -07 04 21.8 19.1   704 – Lincoln Laboratory ETS, New Mexico MPS 18153
2000 08 31.36639 22 59 34.04 -07 04 24.0 18.8   704 – Lincoln Laboratory ETS, New Mexico MPS 18153
2000 08 31.37950 22 59 33.34 -07 04 26.4 19.5   704 – Lincoln Laboratory ETS, New Mexico MPS 18153
2000 09 02.32003 22 57 53.37 -07 10 22.2 18.8 R 699 – Lowell Observatory-LONEOS MPS 18153
2000 09 02.33923 22 57 52.26 -07 10 26.0   699 – Lowell Observatory-LONEOS MPS 18153
2000 09 02.35843 22 57 51.30 -07 10 29.0   699 – Lowell Observatory-LONEOS MPS 18153
2000 09 02.37770 22 57 50.19 -07 10 34.0   699 – Lowell Observatory-LONEOS MPS 18153
2000 09 24.27092 22 40 45.46 -08 06 19.1 19.3   704 – Lincoln Laboratory ETS, New Mexico MPS 19289
2000 09 24.28580 22 40 44.85 -08 06 20.2 19.5   704 – Lincoln Laboratory ETS, New Mexico MPS 19289
2000 09 24.30073 22 40 44.28 -08 06 22.0 19.8   704 – Lincoln Laboratory ETS, New Mexico MPS 19289
2000 09 24.31561 22 40 43.72 -08 06 22.7 19.8   704 – Lincoln Laboratory ETS, New Mexico MPS 19289
2000 10 01.09260 22 37 06.19 -08 14 45.4 19.7   704 – Lincoln Laboratory ETS, New Mexico MPS 19289
2000 10 01.12278 22 37 05.40 -08 14 48.0 19.7   704 – Lincoln Laboratory ETS, New Mexico MPS 19289
2000 10 01.15367 22 37 04.42 -08 14 49.9 19.5   704 – Lincoln Laboratory ETS, New Mexico MPS 19289
2005 09 23.35432 02 12 48.79 +17 04 53.9 21.3 V 291 – LPL/Spacewatch II MPS 150595
2005 09 23.36524 02 12 48.37 +17 04 53.5 21.0 V 291 – LPL/Spacewatch II MPS 150595
2005 09 23.37620 02 12 48.01 +17 04 53.1 20.9 V 291 – LPL/Spacewatch II MPS 150595
2005 10 03.32738 02 06 12.16 +16 51 25.5 20.1 V 703 – Catalina Sky Survey MPS 150595
2005 10 03.33462 02 06 11.80 +16 51 24.2 20.1 V 703 – Catalina Sky Survey MPS 150595
2005 10 03.34189 02 06 11.52 +16 51 22.5 20.2 V 703 – Catalina Sky Survey MPS 150595
2005 10 03.34918 02 06 11.16 +16 51 22.6 21.0 V 703 – Catalina Sky Survey MPS 150595
2005 10 14.19356 01 57 00.56 +16 21 34.4 19.2 R 699 – Lowell Observatory-LONEOS MPS 150595
2005 10 14.21542 01 56 59.37 +16 21 27.6   699 – Lowell Observatory-LONEOS MPS 150595
2005 10 14.23736 01 56 58.18 +16 21 25.5   699 – Lowell Observatory-LONEOS MPS 150595
2005 10 14.25929 01 56 57.01 +16 21 19.7   699 – Lowell Observatory-LONEOS MPS 150595
2005 10 22.31476 01 49 31.40 +15 51 28.0 19.6 V 703 – Catalina Sky Survey MPS 150595
2005 10 22.32425 01 49 30.79 +15 51 25.4 20.7 V 703 – Catalina Sky Survey MPS 150595
2005 10 22.33370 01 49 30.28 +15 51 23.4 19.8 V 703 – Catalina Sky Survey MPS 150595
2005 10 22.34318 01 49 29.74 +15 51 21.1 19.3 V 703 – Catalina Sky Survey MPS 150595
2005 11 06.25700 01 36 33.39 +14 48 55.3 19.7   704 – Lincoln Laboratory ETS, New Mexico MPS 151263
2005 11 06.26953 01 36 32.80 +14 48 51.6 20.0   704 – Lincoln Laboratory ETS, New Mexico MPS 151263
2005 11 06.28204 01 36 32.21 +14 48 48.4 20.4   704 – Lincoln Laboratory ETS, New Mexico MPS 151263
2005 11 12.08558 01 32 23.29 +14 25 41.4 20.5 V 691 – Steward Observatory, Kitt Peak-Spacewatch MPS 151263
2005 11 12.09579 01 32 22.89 +14 25 39.2 20.5 V 691 – Steward Observatory, Kitt Peak-Spacewatch MPS 151263
2005 11 12.10587 01 32 22.51 +14 25 36.4 20.5 V 691 – Steward Observatory, Kitt Peak-Spacewatch MPS 151263
2008 02 13.33286 12 11 31.74 -01 50 05.5 21.4 V G96 – Mt. Lemmon Survey MPS 279563
2008 02 13.33895 12 11 31.59 -01 50 04.7 22.0 V G96 – Mt. Lemmon Survey MPS 279563
2008 02 13.34502 12 11 31.41 -01 50 04.2 21.8 V G96 – Mt. Lemmon Survey MPS 279563
2008 02 13.35112 12 11 31.27 -01 50 03.8 22.1 V G96 – Mt. Lemmon Survey MPS 279563
2008 03 08.30610 11 56 21.44 -00 39 44.7 20.5 V G96 – Mt. Lemmon Survey MPS 279563
2008 03 08.31344 11 56 21.12 -00 39 43.0 20.5 V G96 – Mt. Lemmon Survey MPS 279563
2008 03 08.32093 11 56 20.76 -00 39 41.1 20.4 V G96 – Mt. Lemmon Survey MPS 279563
2008 03 08.32831 11 56 20.40 -00 39 39.4 20.8 V G96 – Mt. Lemmon Survey MPS 279563
2008 03 28.25166 11 39 36.75 +00 47 01.1 20.8 V G96 – Mt. Lemmon Survey MPS 279563
2008 03 28.25666 11 39 36.50 +00 47 02.6 20.4 V G96 – Mt. Lemmon Survey MPS 279563
2008 03 28.26156 11 39 36.25 +00 47 03.6 20.4 V G96 – Mt. Lemmon Survey MPS 279563
2008 03 28.26655 11 39 36.00 +00 47 05.3 20.4 V G96 – Mt. Lemmon Survey MPS 279563
2010 11 18.533135 04 24 19.073 +27 14 50.84 20.86 i F51 – Pan-STARRS 1, Haleakala MPS 365367
2010 11 18.544727 04 24 18.339 +27 14 49.41 20.85 i F51 – Pan-STARRS 1, Haleakala MPS 365367
2010 11 27.37969 04 15 21.99 +26 57 41.7 19.9 V G96 – Mt. Lemmon Survey MPS 358694
2010 11 27.39895 04 15 20.80 +26 57 38.9 20.0 V G96 – Mt. Lemmon Survey MPS 358694
2010 11 27.40863 04 15 20.23 +26 57 37.1 19.4 V G96 – Mt. Lemmon Survey MPS 358694
2010 12 01.27924 04 11 24.82 +26 48 08.6 19.8 V G96 – Mt. Lemmon Survey MPS 358694
2010 12 01.28600 04 11 24.39 +26 48 07.6 20.1 V G96 – Mt. Lemmon Survey MPS 358694
2010 12 01.29289 04 11 23.96 +26 48 06.5 19.9 V G96 – Mt. Lemmon Survey MPS 358694
2010 12 01.29974 04 11 23.53 +26 48 05.3 20.0 V G96 – Mt. Lemmon Survey MPS 358694
2010 12 07.25644 04 05 32.79 +26 31 42.6 20.3   704 – Lincoln Laboratory ETS, New Mexico MPS 358694
2010 12 07.26946 04 05 32.04 +26 31 40.7 20.2   704 – Lincoln Laboratory ETS, New Mexico MPS 358694
2010 12 07.29566 04 05 30.47 +26 31 36.0 20.4   704 – Lincoln Laboratory ETS, New Mexico MPS 358694
2012 01 26.51078 09 19 55.203 +18 35 34.20 21.2 i F51 – Pan-STARRS 1, Haleakala MPS 411497
2012 01 26.52348 09 19 54.526 +18 35 36.57 21.1 i F51 – Pan-STARRS 1, Haleakala MPS 411497
2012 01 26.53596 09 19 53.861 +18 35 39.29 21.3 r F51 – Pan-STARRS 1, Haleakala MPS 411497
2012 01 26.54828 09 19 53.203 +18 35 41.79 21.4 r F51 – Pan-STARRS 1, Haleakala MPS 411497
2012 02 13.31454 09 03 57.405 +19 32 39.57 21.5 w F51 – Pan-STARRS 1, Haleakala MPS 412923
2012 02 13.32910 09 03 56.615 +19 32 42.10 21.6 w F51 – Pan-STARRS 1, Haleakala MPS 412923
2012 02 13.34365 09 03 55.819 +19 32 44.57 21.6 w F51 – Pan-STARRS 1, Haleakala MPS 412923
2012 02 13.35829 09 03 55.011 +19 32 47.33 21.4 w F51 – Pan-STARRS 1, Haleakala MPS 412923
2013 03 17.40074 14 08 16.15 -16 25 37.4 20.2 V G96 – Mt. Lemmon Survey MPS 461595
2013 03 17.40863 14 08 15.90 -16 25 37.9 20.7 V G96 – Mt. Lemmon Survey MPS 461595
2013 03 17.41653 14 08 15.72 -16 25 37.5 20.3 V G96 – Mt. Lemmon Survey MPS 461595
2013 03 17.42435 14 08 15.50 -16 25 37.8 20.6 V G96 – Mt. Lemmon Survey MPS 461595
2013 04 09.45488 13 53 22.157 -15 49 13.96 19.9 w F51 – Pan-STARRS 1, Haleakala MPS 463943
2013 04 09.48424 13 53 20.615 -15 49 08.70 20.0 w F51 – Pan-STARRS 1, Haleakala MPS 463943
2013 04 09.49886 13 53 19.850 -15 49 06.12 20.0 w F51 – Pan-STARRS 1, Haleakala MPS 463943
2013 04 13.07887 13 50 15.11 -15 37 49.4 19.7 R J04 – ESA Optical Ground Station, Tenerife MPS 464936
2013 04 13.09044 13 50 14.49 -15 37 46.9 20.0 R J04 – ESA Optical Ground Station, Tenerife MPS 464936
2013 04 13.10202 13 50 13.88 -15 37 44.8 19.4 R J04 – ESA Optical Ground Station, Tenerife MPS 464936
2013 04 13.11359 13 50 13.21 -15 37 42.1 19.7 R J04 – ESA Optical Ground Station, Tenerife MPS 464936
2013 05 13.20955 13 25 00.98 -13 39 10.3 20.6 V G96 – Mt. Lemmon Survey MPS 468578
2013 05 13.21538 13 25 00.73 -13 39 08.9 20.5 V G96 – Mt. Lemmon Survey MPS 468578
